マクノート彗星

442P/McNaught (2022)

English version
Home page
Updated on September 11, 2022

---------------------------------------------------------------------

・ プロフィール

符号 442P/2022 G1
検出日 2022年4月5日
検出光度 20.0等
検出者 Hidetaka Sato (iTelescope Observatory, Siding Spring)

・ 写真集

・ 軌道要素

Epoch 2022 Aug. 9.0 TT = JDT 2459800.5
T 2022 Aug. 19.17581 TT                                 Rudenko
q   2.3225607            (2000.0)            P               Q
n   0.08875266     Peri.  310.98614     +0.95409837     +0.29421974
a   4.9775444      Node    32.01949     -0.23319117     +0.84703609
e   0.5333923      Incl.    6.05803     -0.18793133     +0.44267890
P  11.1
From 267 observations 2000 Nov. 28-2022 Sept. 5, mean residual 0".7.

・ 光度変化

        m1 = 13.5 + 5 logΔ + 10.0 log r

---------------------------------------------------------------------

軌道要素はM.P.E.C. 2022-R139に掲載されたものです。
光度グラフはComet for Windowsで作成したものです。

---------------------------------------------------------------------

Copyright(C) Seiichi Yoshida (comet@aerith.net). All rights reserved.